Hourly Data Report for November 12, 2003

TORONTO CITY
ONTARIO

43°40'00.000" N
79°24'00.000" W
112.50 m
6158355
71508
XTO

Download Data

Hourly Data (November 2003)
Hourly Data Report for November 12, 2003
TIME
LST
Temp Definition
°C
Dew Point Definition
°C
Rel Hum Definition
%
Precip. Amount Definition
mm

Wind Dir Definition
10's deg

Wind Spd Definition
km/h
Visibility Definition
km
Stn Press Definition
kPa
Hmdx Definition


Wind Chill Definition


Weather Definition


00:00 9.6 8.8 95   LegendMM LegendMM LegendMM 99.68     LegendNANA
01:00 9.1 8.5 96   LegendMM LegendMM LegendMM 99.65     LegendNANA
02:00 8.9 8.5 97   LegendMM LegendMM LegendMM 99.64     LegendNANA
03:00 9.2 8.9 98   LegendMM LegendMM LegendMM 99.68     LegendNANA
04:00 9.8 9.0 95   LegendMM LegendMM LegendMM 99.66     LegendNANA
05:00 9.8 8.9 94   LegendMM LegendMM LegendMM 99.68     LegendNANA
06:00 9.3 7.9 91   LegendMM LegendMM LegendMM 99.67     LegendNANA
07:00 8.5 6.5 87   LegendMM LegendMM LegendMM 99.71     LegendNANA
08:00 7.7 5.9 88   LegendMM LegendMM LegendMM 99.76     LegendNANA
09:00 8.8 5.6 80   LegendMM LegendMM LegendMM 99.77     LegendNANA
10:00 10.3 7.2 81   LegendMM LegendMM LegendMM 99.72     LegendNANA
11:00 11.8 7.1 73   LegendMM LegendMM LegendMM 99.63     LegendNANA
12:00 11.6 6.9 73   LegendMM LegendMM LegendMM 99.55     LegendNANA
13:00 11.6 7.3 75   LegendMM LegendMM LegendMM 99.44     LegendNANA
14:00 10.8 6.9 77   LegendMM LegendMM LegendMM 99.31     LegendNANA
15:00 10.2 6.0 75   LegendMM LegendMM LegendMM 99.17     LegendNANA
16:00 10.2 5.8 74   LegendMM LegendMM LegendMM 99.05     LegendNANA
17:00 9.7 6.8 82   LegendMM LegendMM LegendMM 98.91     LegendNANA
18:00 9.6 7.9 89   LegendMM LegendMM LegendMM 98.73     LegendNANA
19:00 9.7 8.9 95   LegendMM LegendMM LegendMM 98.52     LegendNANA
20:00 9.8 9.0 95   LegendMM LegendMM LegendMM 98.20     LegendNANA
21:00 10.2 9.9 98   LegendMM LegendMM LegendMM 97.98     LegendNANA
22:00 9.9 9.3 96   LegendMM LegendMM LegendMM 97.80     LegendNANA
23:00 8.5 6.1 85   LegendMM LegendMM LegendMM 97.87     LegendNANA

Notes on Data Quality.

Legend

  • E = Estimated
  • M = Missing
  • NA = Not Available*
  • [empty] = Indicates an unobserved value
Date modified: